Year,Month,Day,Hour,Minute,Value (Times are PST for temperature in C)
2021,04,17,00,00,13.80
2021,04,17,00,01,13.90
2021,04,17,00,02,13.90
2021,04,17,00,03,13.90
2021,04,17,00,04,13.80
2021,04,17,00,05,13.80
2021,04,17,00,06,13.80
2021,04,17,00,07,13.70
2021,04,17,00,08,13.70
2021,04,17,00,09,13.70
2021,04,17,00,10,13.60
2021,04,17,00,11,13.60
2021,04,17,00,12,13.60
2021,04,17,00,13,13.60
2021,04,17,00,14,13.60
2021,04,17,00,15,13.60
2021,04,17,00,16,13.60
2021,04,17,00,17,13.60
2021,04,17,00,18,13.60
2021,04,17,00,19,13.60
2021,04,17,00,20,13.60
2021,04,17,00,21,13.60
2021,04,17,00,22,13.60
2021,04,17,00,23,13.60
2021,04,17,00,24,13.60
2021,04,17,00,25,13.60
2021,04,17,00,26,13.60
2021,04,17,00,27,13.60
2021,04,17,00,28,13.50
2021,04,17,00,29,13.50
2021,04,17,00,30,13.50
2021,04,17,00,31,13.40
2021,04,17,00,32,13.40
2021,04,17,00,33,13.40
2021,04,17,00,34,13.30
2021,04,17,00,35,13.30
2021,04,17,00,36,13.20
2021,04,17,00,37,13.20
2021,04,17,00,38,13.20
2021,04,17,00,39,13.10
2021,04,17,00,40,13.10
2021,04,17,00,41,13.00
2021,04,17,00,42,12.90
2021,04,17,00,43,12.90
2021,04,17,00,44,12.90
2021,04,17,00,45,12.80
2021,04,17,00,46,12.80
2021,04,17,00,47,12.80
2021,04,17,00,48,12.80
2021,04,17,00,49,12.80
2021,04,17,00,50,12.70
2021,04,17,00,51,12.70
2021,04,17,00,52,12.70
2021,04,17,00,53,12.70
2021,04,17,00,54,12.70
2021,04,17,00,55,12.70
2021,04,17,00,56,12.70
2021,04,17,00,57,12.70
2021,04,17,00,58,12.70
2021,04,17,00,59,12.70
2021,04,17,01,00,12.70
2021,04,17,01,01,12.70
2021,04,17,01,02,12.60
2021,04,17,01,03,12.60
2021,04,17,01,04,12.60
2021,04,17,01,05,12.60
2021,04,17,01,06,12.60
2021,04,17,01,07,12.50
2021,04,17,01,08,12.50
2021,04,17,01,09,12.50
2021,04,17,01,10,12.40
2021,04,17,01,11,12.40
2021,04,17,01,12,12.30
2021,04,17,01,13,12.30
2021,04,17,01,14,12.30
2021,04,17,01,15,12.20
2021,04,17,01,16,12.20
2021,04,17,01,17,12.10
2021,04,17,01,18,12.10
2021,04,17,01,19,12.00
2021,04,17,01,20,12.00
2021,04,17,01,21,11.90
2021,04,17,01,22,11.90
2021,04,17,01,23,11.80
2021,04,17,01,24,11.70
2021,04,17,01,25,11.70
2021,04,17,01,26,11.70
2021,04,17,01,27,11.70
2021,04,17,01,28,11.70
2021,04,17,01,29,11.70
2021,04,17,01,30,11.70
2021,04,17,01,31,11.70
2021,04,17,01,32,11.80
2021,04,17,01,33,11.80
2021,04,17,01,34,11.90
2021,04,17,01,35,11.90
2021,04,17,01,36,11.90
2021,04,17,01,37,11.90
2021,04,17,01,38,11.90
2021,04,17,01,39,11.90
2021,04,17,01,40,11.90
2021,04,17,01,41,11.90
2021,04,17,01,42,11.90
2021,04,17,01,43,11.80
2021,04,17,01,44,11.80
2021,04,17,01,45,11.70
2021,04,17,01,46,11.70
2021,04,17,01,47,11.70
2021,04,17,01,48,11.60
2021,04,17,01,49,11.60
2021,04,17,01,50,11.50
2021,04,17,01,51,11.50
2021,04,17,01,52,11.40
2021,04,17,01,53,11.40
2021,04,17,01,54,11.40
2021,04,17,01,55,11.40
2021,04,17,01,56,11.40
2021,04,17,01,57,11.30
2021,04,17,01,58,11.30
2021,04,17,01,59,11.30
2021,04,17,02,00,11.30
2021,04,17,02,01,11.30
2021,04,17,02,02,11.30
2021,04,17,02,03,11.30
2021,04,17,02,04,11.30
2021,04,17,02,05,11.30
2021,04,17,02,06,11.20
2021,04,17,02,07,11.20
2021,04,17,02,08,11.20
2021,04,17,02,09,11.20
2021,04,17,02,10,11.20
2021,04,17,02,11,11.20
2021,04,17,02,12,11.20
2021,04,17,02,13,11.20
2021,04,17,02,14,11.10
2021,04,17,02,15,11.10
2021,04,17,02,16,11.10
2021,04,17,02,17,11.10
2021,04,17,02,18,11.10
2021,04,17,02,19,11.10
2021,04,17,02,20,11.10
2021,04,17,02,21,11.10
2021,04,17,02,22,11.10
2021,04,17,02,23,11.10
2021,04,17,02,24,11.10
2021,04,17,02,25,11.10
2021,04,17,02,26,11.00
2021,04,17,02,27,11.00
2021,04,17,02,28,10.90
2021,04,17,02,29,10.90
2021,04,17,02,30,10.90
2021,04,17,02,31,10.90
2021,04,17,02,32,10.90
2021,04,17,02,33,10.90
2021,04,17,02,34,10.90
2021,04,17,02,35,10.90
2021,04,17,02,36,10.90
2021,04,17,02,37,10.90
2021,04,17,02,38,10.90
2021,04,17,02,39,10.90
2021,04,17,02,40,10.90
2021,04,17,02,41,11.00
2021,04,17,02,42,11.00
2021,04,17,02,43,11.00
2021,04,17,02,44,11.00
2021,04,17,02,45,11.00
2021,04,17,02,46,11.00
2021,04,17,02,47,11.00
2021,04,17,02,48,11.00
2021,04,17,02,49,11.00
2021,04,17,02,50,11.00
2021,04,17,02,51,11.00
2021,04,17,02,52,10.90
2021,04,17,02,53,10.90
2021,04,17,02,54,10.90
2021,04,17,02,55,10.80
2021,04,17,02,56,10.80
2021,04,17,02,57,10.80
2021,04,17,02,58,10.70
2021,04,17,02,59,10.70
2021,04,17,03,00,10.70
2021,04,17,03,01,10.70
2021,04,17,03,02,10.70
2021,04,17,03,03,10.80
2021,04,17,03,04,10.80
2021,04,17,03,05,10.80
2021,04,17,03,06,10.80
2021,04,17,03,07,10.80
2021,04,17,03,08,10.80
2021,04,17,03,09,10.80
2021,04,17,03,10,10.80
2021,04,17,03,11,10.80
2021,04,17,03,12,10.80
2021,04,17,03,13,10.80
2021,04,17,03,14,10.80
2021,04,17,03,15,10.80
2021,04,17,03,16,10.80
2021,04,17,03,17,10.80
2021,04,17,03,18,10.80
2021,04,17,03,19,10.80
2021,04,17,03,20,10.90
2021,04,17,03,21,10.90
2021,04,17,03,22,10.90
2021,04,17,03,23,11.00
2021,04,17,03,24,11.00
2021,04,17,03,25,11.00
2021,04,17,03,26,11.00
2021,04,17,03,27,11.00
2021,04,17,03,28,11.00
2021,04,17,03,29,11.00
2021,04,17,03,30,11.00
2021,04,17,03,31,10.90
2021,04,17,03,32,10.90
2021,04,17,03,33,10.90
2021,04,17,03,34,10.90
2021,04,17,03,35,10.90
2021,04,17,03,36,10.90
2021,04,17,03,37,10.90
2021,04,17,03,38,10.90
2021,04,17,03,39,10.90
2021,04,17,03,40,10.90
2021,04,17,03,41,10.80
2021,04,17,03,42,10.80
2021,04,17,03,43,10.80
2021,04,17,03,44,10.70
2021,04,17,03,45,10.70
2021,04,17,03,46,10.70
2021,04,17,03,47,10.70
2021,04,17,03,48,10.70
2021,04,17,03,49,10.80
2021,04,17,03,50,10.80
2021,04,17,03,51,10.80
2021,04,17,03,52,10.80
2021,04,17,03,53,10.80
2021,04,17,03,54,10.80
2021,04,17,03,55,10.80
2021,04,17,03,56,10.80
2021,04,17,03,57,10.80
2021,04,17,03,58,10.90
2021,04,17,03,59,10.90
2021,04,17,04,00,10.90
2021,04,17,04,01,10.90
2021,04,17,04,02,10.90
2021,04,17,04,03,10.80
2021,04,17,04,04,10.80
2021,04,17,04,05,10.80
2021,04,17,04,06,10.80
2021,04,17,04,07,10.80
2021,04,17,04,08,10.80
2021,04,17,04,09,10.70
2021,04,17,04,10,10.70
2021,04,17,04,11,10.70
2021,04,17,04,12,10.70
2021,04,17,04,13,10.70
2021,04,17,04,14,10.60
2021,04,17,04,15,10.60
2021,04,17,04,16,10.60
2021,04,17,04,17,10.60
2021,04,17,04,18,10.50
2021,04,17,04,19,10.50
2021,04,17,04,20,10.50
2021,04,17,04,21,10.40
2021,04,17,04,22,10.40
2021,04,17,04,23,10.40
2021,04,17,04,24,10.40
2021,04,17,04,25,10.30
2021,04,17,04,26,10.30
2021,04,17,04,27,10.30
2021,04,17,04,28,10.30
2021,04,17,04,29,10.30
2021,04,17,04,30,10.30
2021,04,17,04,31,10.30
2021,04,17,04,32,10.30
2021,04,17,04,33,10.30
2021,04,17,04,34,10.30
2021,04,17,04,35,10.30
2021,04,17,04,36,10.30
2021,04,17,04,37,10.30
2021,04,17,04,38,10.30
2021,04,17,04,39,10.30
2021,04,17,04,40,10.30
2021,04,17,04,41,10.40
2021,04,17,04,42,10.40
2021,04,17,04,43,10.40
2021,04,17,04,44,10.40
2021,04,17,04,45,10.40
2021,04,17,04,46,10.40
2021,04,17,04,47,10.40
2021,04,17,04,48,10.40
2021,04,17,04,49,10.40
2021,04,17,04,50,10.40
2021,04,17,04,51,10.40
2021,04,17,04,52,10.40
2021,04,17,04,53,10.30
2021,04,17,04,54,10.30
2021,04,17,04,55,10.30
2021,04,17,04,56,10.30
2021,04,17,04,57,10.30
2021,04,17,04,58,10.30
2021,04,17,04,59,10.30
2021,04,17,05,00,10.30
2021,04,17,05,01,10.20
2021,04,17,05,02,10.20
2021,04,17,05,03,10.20
2021,04,17,05,04,10.20
2021,04,17,05,05,10.20
2021,04,17,05,06,10.20
2021,04,17,05,07,10.20
2021,04,17,05,08,10.20
2021,04,17,05,09,10.20
2021,04,17,05,10,10.20
2021,04,17,05,11,10.10
2021,04,17,05,12,10.10
2021,04,17,05,13,10.10
2021,04,17,05,14,10.10
2021,04,17,05,15,10.10
2021,04,17,05,16,10.10
2021,04,17,05,17,10.10
2021,04,17,05,18,10.10
2021,04,17,05,19,10.00
2021,04,17,05,20,10.00
2021,04,17,05,21,10.00
2021,04,17,05,22,10.00
2021,04,17,05,23,10.00
2021,04,17,05,24,10.00
2021,04,17,05,25,10.00
2021,04,17,05,26,9.90
2021,04,17,05,27,9.90
2021,04,17,05,28,9.90
2021,04,17,05,29,9.90
2021,04,17,05,30,9.90
2021,04,17,05,31,9.90
2021,04,17,05,32,9.90
2021,04,17,05,33,9.90
2021,04,17,05,34,9.90
2021,04,17,05,35,9.90
2021,04,17,05,36,9.90
2021,04,17,05,37,9.90
2021,04,17,05,38,9.90
2021,04,17,05,39,9.90
2021,04,17,05,40,9.90
2021,04,17,05,41,9.80
2021,04,17,05,42,9.80
2021,04,17,05,43,9.80
2021,04,17,05,44,9.80
2021,04,17,05,45,9.80
2021,04,17,05,46,9.80
2021,04,17,05,47,9.80
2021,04,17,05,48,9.80
2021,04,17,05,49,9.80
2021,04,17,05,50,9.80
2021,04,17,05,51,9.80
2021,04,17,05,52,9.80
2021,04,17,05,53,9.80
2021,04,17,05,54,9.80
2021,04,17,05,55,9.80
2021,04,17,05,56,9.80
2021,04,17,05,57,9.80
2021,04,17,05,58,9.80
2021,04,17,05,59,9.80
2021,04,17,06,00,9.80
2021,04,17,06,01,9.80
2021,04,17,06,02,9.80
2021,04,17,06,03,9.80
2021,04,17,06,04,9.80
2021,04,17,06,05,9.80
2021,04,17,06,06,9.80
2021,04,17,06,07,9.70
2021,04,17,06,08,9.70
2021,04,17,06,09,9.70
2021,04,17,06,10,9.70
2021,04,17,06,11,9.70
2021,04,17,06,12,9.70
2021,04,17,06,13,9.60
2021,04,17,06,14,9.60
2021,04,17,06,15,9.60
2021,04,17,06,16,9.50
2021,04,17,06,17,9.50
2021,04,17,06,18,9.40
2021,04,17,06,19,9.40
2021,04,17,06,20,9.40
2021,04,17,06,21,9.40
2021,04,17,06,22,9.40
2021,04,17,06,23,9.40
2021,04,17,06,24,9.40
2021,04,17,06,25,9.40
2021,04,17,06,26,9.40
2021,04,17,06,27,9.40
2021,04,17,06,28,9.40
2021,04,17,06,29,9.30
2021,04,17,06,30,9.30
2021,04,17,06,31,9.30
2021,04,17,06,32,9.30
2021,04,17,06,33,9.20
2021,04,17,06,34,9.20
2021,04,17,06,35,9.20
2021,04,17,06,36,9.20
2021,04,17,06,37,9.10
2021,04,17,06,38,9.10
2021,04,17,06,39,9.10
2021,04,17,06,40,9.20
2021,04,17,06,41,9.10
2021,04,17,06,42,9.20
2021,04,17,06,43,9.20
2021,04,17,06,44,9.20
2021,04,17,06,45,9.20
2021,04,17,06,46,9.20
2021,04,17,06,47,9.20
2021,04,17,06,48,9.20
2021,04,17,06,49,9.20
2021,04,17,06,50,9.20
2021,04,17,06,51,9.20
2021,04,17,06,52,9.20
2021,04,17,06,53,9.20
2021,04,17,06,54,9.30
2021,04,17,06,55,9.30
2021,04,17,06,56,9.30
2021,04,17,06,57,9.30
2021,04,17,06,58,9.30
2021,04,17,06,59,9.30
2021,04,17,07,00,9.30
2021,04,17,07,01,9.30
2021,04,17,07,02,9.30
2021,04,17,07,03,9.40
2021,04,17,07,04,9.40
2021,04,17,07,05,9.40
2021,04,17,07,06,9.40
2021,04,17,07,07,9.40
2021,04,17,07,08,9.40
2021,04,17,07,09,9.40
2021,04,17,07,10,9.40
2021,04,17,07,11,9.40
2021,04,17,07,12,9.40
2021,04,17,07,13,9.40
2021,04,17,07,14,9.40
2021,04,17,07,15,9.50
2021,04,17,07,16,9.50
2021,04,17,07,17,9.50
2021,04,17,07,18,9.50
2021,04,17,07,19,9.50
2021,04,17,07,20,9.60
2021,04,17,07,21,9.60
2021,04,17,07,22,9.60
2021,04,17,07,23,9.60
2021,04,17,07,24,9.60
2021,04,17,07,25,9.60
2021,04,17,07,26,9.60
2021,04,17,07,27,9.60
2021,04,17,07,28,9.60
2021,04,17,07,29,9.60
2021,04,17,07,30,9.60
2021,04,17,07,31,9.60
2021,04,17,07,32,9.70
2021,04,17,07,33,9.70
2021,04,17,07,34,9.70
2021,04,17,07,35,9.70
2021,04,17,07,36,9.70
2021,04,17,07,37,9.70
2021,04,17,07,38,9.70
2021,04,17,07,39,9.80
2021,04,17,07,40,9.80
2021,04,17,07,41,9.80
2021,04,17,07,42,9.80
2021,04,17,07,43,9.80
2021,04,17,07,44,9.80
2021,04,17,07,45,9.80
2021,04,17,07,46,9.90
2021,04,17,07,47,9.90
2021,04,17,07,48,9.90
2021,04,17,07,49,9.90
2021,04,17,07,50,9.90
2021,04,17,07,51,9.90
2021,04,17,07,52,9.90
2021,04,17,07,53,9.90
2021,04,17,07,54,9.90
2021,04,17,07,55,9.90
2021,04,17,07,56,9.90
2021,04,17,07,57,9.90
2021,04,17,07,58,9.90
2021,04,17,07,59,10.00
2021,04,17,08,00,10.00
2021,04,17,08,01,10.00
2021,04,17,08,02,10.00
2021,04,17,08,03,10.10
2021,04,17,08,04,10.10
2021,04,17,08,05,10.10
2021,04,17,08,06,10.10
2021,04,17,08,07,10.10
2021,04,17,08,08,10.20
2021,04,17,08,09,10.20
2021,04,17,08,10,10.20
2021,04,17,08,11,10.20
2021,04,17,08,12,10.30
2021,04,17,08,13,10.30
2021,04,17,08,14,10.30
2021,04,17,08,15,10.40
2021,04,17,08,16,10.40
2021,04,17,08,17,10.50
2021,04,17,08,18,10.50
2021,04,17,08,19,10.60
2021,04,17,08,20,10.70
2021,04,17,08,21,10.70
2021,04,17,08,22,10.80
2021,04,17,08,23,10.80
2021,04,17,08,24,10.80
2021,04,17,08,25,10.80
2021,04,17,08,26,10.80
2021,04,17,08,27,10.80
2021,04,17,08,28,10.80
2021,04,17,08,29,10.80
2021,04,17,08,30,10.80
2021,04,17,08,31,10.80
2021,04,17,08,32,10.80
2021,04,17,08,33,10.70
2021,04,17,08,34,10.70
2021,04,17,08,35,10.70
2021,04,17,08,36,10.70
2021,04,17,08,37,10.70
2021,04,17,08,38,10.70
2021,04,17,08,39,10.70
2021,04,17,08,40,10.80
2021,04,17,08,41,10.80
2021,04,17,08,42,10.90
2021,04,17,08,43,11.00
2021,04,17,08,44,11.00
2021,04,17,08,45,11.10
2021,04,17,08,46,11.10
2021,04,17,08,47,11.20
2021,04,17,08,48,11.20
2021,04,17,08,49,11.20
2021,04,17,08,50,11.30
2021,04,17,08,51,11.30
2021,04,17,08,52,11.40
2021,04,17,08,53,11.40
2021,04,17,08,54,11.50
2021,04,17,08,55,11.60
2021,04,17,08,56,11.70
2021,04,17,08,57,11.70
2021,04,17,08,58,11.80
2021,04,17,08,59,11.90
2021,04,17,09,00,11.90
2021,04,17,09,01,12.00
2021,04,17,09,02,12.00
2021,04,17,09,03,12.10
2021,04,17,09,04,12.10
2021,04,17,09,05,12.20
2021,04,17,09,06,12.30
2021,04,17,09,07,12.30
2021,04,17,09,08,12.30
2021,04,17,09,09,12.40
2021,04,17,09,10,12.40
2021,04,17,09,11,12.50
2021,04,17,09,12,12.60
2021,04,17,09,13,12.60
2021,04,17,09,14,12.70
2021,04,17,09,15,12.80
2021,04,17,09,16,12.80
2021,04,17,09,17,12.90
2021,04,17,09,18,13.00
2021,04,17,09,19,13.00
2021,04,17,09,20,13.10
2021,04,17,09,21,13.20
2021,04,17,09,22,13.20
2021,04,17,09,23,13.30
2021,04,17,09,24,13.30
2021,04,17,09,25,13.30
2021,04,17,09,26,13.30
2021,04,17,09,27,13.30
2021,04,17,09,28,13.30
2021,04,17,09,29,13.40
2021,04,17,09,30,13.40
2021,04,17,09,31,13.40
2021,04,17,09,32,13.40
2021,04,17,09,33,13.50
2021,04,17,09,34,13.50
2021,04,17,09,35,13.60
2021,04,17,09,36,13.70
2021,04,17,09,37,13.70
2021,04,17,09,38,13.80
2021,04,17,09,39,13.80
2021,04,17,09,40,13.80
2021,04,17,09,41,13.80
2021,04,17,09,42,13.80
2021,04,17,09,43,13.80
2021,04,17,09,44,13.80
2021,04,17,09,45,13.80
2021,04,17,09,46,13.90
2021,04,17,09,47,13.90
2021,04,17,09,48,13.90
2021,04,17,09,49,14.00
2021,04,17,09,50,14.00
2021,04,17,09,51,14.10
2021,04,17,09,52,14.10
2021,04,17,09,53,14.10
2021,04,17,09,54,14.10
2021,04,17,09,55,14.10
2021,04,17,09,56,14.20
2021,04,17,09,57,14.30
2021,04,17,09,58,14.30
2021,04,17,09,59,14.40
2021,04,17,10,00,14.50
2021,04,17,10,01,14.50
2021,04,17,10,02,14.50
2021,04,17,10,03,14.60
2021,04,17,10,04,14.60
2021,04,17,10,05,14.60
2021,04,17,10,06,14.60
2021,04,17,10,07,14.60
2021,04,17,10,08,14.70
2021,04,17,10,09,14.70
2021,04,17,10,10,14.70
2021,04,17,10,11,14.70
2021,04,17,10,12,14.80
2021,04,17,10,13,14.80
2021,04,17,10,14,14.80
2021,04,17,10,15,14.90
2021,04,17,10,16,14.90
2021,04,17,10,17,14.90
2021,04,17,10,18,14.90
2021,04,17,10,19,15.00
2021,04,17,10,20,15.00
2021,04,17,10,21,15.10
2021,04,17,10,22,15.10
2021,04,17,10,23,15.20
2021,04,17,10,24,15.20
2021,04,17,10,25,15.30
2021,04,17,10,26,15.40
2021,04,17,10,27,15.40
2021,04,17,10,28,15.50
2021,04,17,10,29,15.50
2021,04,17,10,30,15.60
2021,04,17,10,31,15.60
2021,04,17,10,32,15.70
2021,04,17,10,33,15.70
2021,04,17,10,34,15.80
2021,04,17,10,35,15.80
2021,04,17,10,36,15.90
2021,04,17,10,37,15.90
2021,04,17,10,38,16.00
2021,04,17,10,39,16.00
2021,04,17,10,40,16.10
2021,04,17,10,41,16.10
2021,04,17,10,42,16.20
2021,04,17,10,43,16.20
2021,04,17,10,44,16.30
2021,04,17,10,45,16.30
2021,04,17,10,46,16.40
2021,04,17,10,47,16.40
2021,04,17,10,48,16.40
2021,04,17,10,49,16.50
2021,04,17,10,50,16.50
2021,04,17,10,51,16.60
2021,04,17,10,52,16.70
2021,04,17,10,53,16.70
2021,04,17,10,54,16.70
2021,04,17,10,55,16.80
2021,04,17,10,56,16.90
2021,04,17,10,57,16.90
2021,04,17,10,58,17.00
2021,04,17,10,59,17.10
2021,04,17,11,00,17.10
2021,04,17,11,01,17.20
2021,04,17,11,02,17.30
2021,04,17,11,03,17.40
2021,04,17,11,04,17.40
2021,04,17,11,05,17.50
2021,04,17,11,06,17.60
2021,04,17,11,07,17.70
2021,04,17,11,08,17.70
2021,04,17,11,09,17.70
2021,04,17,11,10,17.70
2021,04,17,11,11,17.70
2021,04,17,11,12,17.80
2021,04,17,11,13,17.80
2021,04,17,11,14,17.80
2021,04,17,11,15,17.80
2021,04,17,11,16,17.80
2021,04,17,11,17,17.90
2021,04,17,11,18,17.90
2021,04,17,11,19,17.90
2021,04,17,11,20,17.90
2021,04,17,11,21,17.90
2021,04,17,11,22,17.90
2021,04,17,11,23,17.90
2021,04,17,11,24,17.90
2021,04,17,11,25,17.90
2021,04,17,11,26,18.00
2021,04,17,11,27,18.10
2021,04,17,11,28,18.10
2021,04,17,11,29,18.20
2021,04,17,11,30,18.20
2021,04,17,11,31,18.20
2021,04,17,11,32,18.20
2021,04,17,11,33,18.20
2021,04,17,11,34,18.20
2021,04,17,11,35,18.20
2021,04,17,11,36,18.20
2021,04,17,11,37,18.20
2021,04,17,11,38,18.20
2021,04,17,11,39,18.20
2021,04,17,11,40,18.20
2021,04,17,11,41,18.10
2021,04,17,11,42,18.10
2021,04,17,11,43,18.10
2021,04,17,11,44,18.10
2021,04,17,11,45,18.10
2021,04,17,11,46,18.10
2021,04,17,11,47,18.10
2021,04,17,11,48,18.10
2021,04,17,11,49,18.20
2021,04,17,11,50,18.20
2021,04,17,11,51,18.20
2021,04,17,11,52,18.30
2021,04,17,11,53,18.30
2021,04,17,11,54,18.40
2021,04,17,11,55,18.40
2021,04,17,11,56,18.50
2021,04,17,11,57,18.60
2021,04,17,11,58,18.60
2021,04,17,11,59,18.60
2021,04,17,12,00,18.70
2021,04,17,12,01,18.70
2021,04,17,12,02,18.70
2021,04,17,12,03,18.80
2021,04,17,12,04,18.80
2021,04,17,12,05,18.80
2021,04,17,12,06,18.90
2021,04,17,12,07,18.90
2021,04,17,12,08,19.00
2021,04,17,12,09,19.00
2021,04,17,12,10,19.10
2021,04,17,12,11,19.20
2021,04,17,12,12,19.20
2021,04,17,12,13,19.30
2021,04,17,12,14,19.20
2021,04,17,12,15,19.20
2021,04,17,12,16,19.20
2021,04,17,12,17,19.10
2021,04,17,12,18,19.10
2021,04,17,12,19,19.10
2021,04,17,12,20,19.10
2021,04,17,12,21,19.10
2021,04,17,12,22,19.10
2021,04,17,12,23,19.00
2021,04,17,12,24,19.00
2021,04,17,12,25,18.90
2021,04,17,12,26,18.90
2021,04,17,12,27,18.90
2021,04,17,12,28,18.90
2021,04,17,12,29,19.00
2021,04,17,12,30,19.10
2021,04,17,12,31,19.10
2021,04,17,12,32,19.10
2021,04,17,12,33,19.20
2021,04,17,12,34,19.30
2021,04,17,12,35,19.30
2021,04,17,12,36,19.30
2021,04,17,12,37,19.40
2021,04,17,12,38,19.40
2021,04,17,12,39,19.40
2021,04,17,12,40,19.50
2021,04,17,12,41,19.50
2021,04,17,12,42,19.60
2021,04,17,12,43,19.60
2021,04,17,12,44,19.50
2021,04,17,12,45,19.50
2021,04,17,12,46,19.50
2021,04,17,12,47,19.50
2021,04,17,12,48,19.50
2021,04,17,12,49,19.40
2021,04,17,12,50,19.40
2021,04,17,12,51,19.40
2021,04,17,12,52,19.50
2021,04,17,12,53,19.60
2021,04,17,12,54,19.70
2021,04,17,12,55,19.70
2021,04,17,12,56,19.80
2021,04,17,12,57,19.90
2021,04,17,12,58,19.90
2021,04,17,12,59,20.00
2021,04,17,13,00,20.10
2021,04,17,13,01,20.20
2021,04,17,13,02,20.20
2021,04,17,13,03,20.30
2021,04,17,13,04,20.40
2021,04,17,13,05,20.40
2021,04,17,13,06,20.40
2021,04,17,13,07,20.40
2021,04,17,13,08,20.40
2021,04,17,13,09,20.40
2021,04,17,13,10,20.40
2021,04,17,13,11,20.40
2021,04,17,13,12,20.40
2021,04,17,13,13,20.50
2021,04,17,13,14,20.50
2021,04,17,13,15,20.60
2021,04,17,13,16,20.70
2021,04,17,13,17,20.70
2021,04,17,13,18,20.80
2021,04,17,13,19,20.90
2021,04,17,13,20,21.00
2021,04,17,13,21,21.00
2021,04,17,13,22,21.10
2021,04,17,13,23,21.20
2021,04,17,13,24,21.20
2021,04,17,13,25,21.20
2021,04,17,13,26,21.20
2021,04,17,13,27,21.20
2021,04,17,13,28,21.20
2021,04,17,13,29,21.20
2021,04,17,13,30,21.20
2021,04,17,13,31,21.10
2021,04,17,13,32,21.00
2021,04,17,13,33,21.00
2021,04,17,13,34,21.00
2021,04,17,13,35,21.00
2021,04,17,13,36,21.00
2021,04,17,13,37,21.10
2021,04,17,13,38,21.10
2021,04,17,13,39,21.10
2021,04,17,13,40,21.20
2021,04,17,13,41,21.20
2021,04,17,13,42,21.20
2021,04,17,13,43,21.20
2021,04,17,13,44,21.20
2021,04,17,13,45,21.20
2021,04,17,13,46,21.20
2021,04,17,13,47,21.30
2021,04,17,13,48,21.30
2021,04,17,13,49,21.40
2021,04,17,13,50,21.30
2021,04,17,13,51,21.30
2021,04,17,13,52,21.30
2021,04,17,13,53,21.30
2021,04,17,13,54,21.40
2021,04,17,13,55,21.40
2021,04,17,13,56,21.40
2021,04,17,13,57,21.40
2021,04,17,13,58,21.40
2021,04,17,13,59,21.30
2021,04,17,14,00,21.30
2021,04,17,14,01,21.30
2021,04,17,14,02,21.20
2021,04,17,14,03,21.20
2021,04,17,14,04,21.10
2021,04,17,14,05,21.20
2021,04,17,14,06,21.20
2021,04,17,14,07,21.20
2021,04,17,14,08,21.20
2021,04,17,14,09,21.20
2021,04,17,14,10,21.30
2021,04,17,14,11,21.30
2021,04,17,14,12,21.30
2021,04,17,14,13,21.30
2021,04,17,14,14,21.40
2021,04,17,14,15,21.40
2021,04,17,14,16,21.40
2021,04,17,14,17,21.40
2021,04,17,14,18,21.40
2021,04,17,14,19,21.40
2021,04,17,14,20,21.40
2021,04,17,14,21,21.40
2021,04,17,14,22,21.30
2021,04,17,14,23,21.30
2021,04,17,14,24,21.30
2021,04,17,14,25,21.30
2021,04,17,14,26,21.30
2021,04,17,14,27,21.40
2021,04,17,14,28,21.40
2021,04,17,14,29,21.40
2021,04,17,14,30,21.40
2021,04,17,14,31,21.40
2021,04,17,14,32,21.40
2021,04,17,14,33,21.40
2021,04,17,14,34,21.40
2021,04,17,14,35,21.30
2021,04,17,14,36,21.30
2021,04,17,14,37,21.30
2021,04,17,14,38,21.40
2021,04,17,14,39,21.40
2021,04,17,14,40,21.40
2021,04,17,14,41,21.50
2021,04,17,14,42,21.60
2021,04,17,14,43,21.60
2021,04,17,14,44,21.60
2021,04,17,14,45,21.60
2021,04,17,14,46,21.60
2021,04,17,14,47,21.60
2021,04,17,14,48,21.60
2021,04,17,14,49,21.60
2021,04,17,14,50,21.60
2021,04,17,14,51,21.60
2021,04,17,14,52,21.60
2021,04,17,14,53,21.50
2021,04,17,14,54,21.50
2021,04,17,14,55,21.50
2021,04,17,14,56,21.50
2021,04,17,14,57,21.40
2021,04,17,14,58,21.50
2021,04,17,14,59,21.50
2021,04,17,15,00,21.50
2021,04,17,15,01,21.60
2021,04,17,15,02,21.60
2021,04,17,15,03,21.60
2021,04,17,15,04,21.70
2021,04,17,15,05,21.70
2021,04,17,15,06,21.70
2021,04,17,15,07,21.80
2021,04,17,15,08,21.80
2021,04,17,15,09,21.80
2021,04,17,15,10,21.80
2021,04,17,15,11,21.80
2021,04,17,15,12,21.90
2021,04,17,15,13,21.90
2021,04,17,15,14,21.80
2021,04,17,15,15,21.90
2021,04,17,15,16,21.90
2021,04,17,15,17,21.90
2021,04,17,15,18,21.90
2021,04,17,15,19,21.90
2021,04,17,15,20,21.90
2021,04,17,15,21,21.90
2021,04,17,15,22,21.90
2021,04,17,15,23,21.90
2021,04,17,15,24,22.00
2021,04,17,15,25,22.00
2021,04,17,15,26,21.90
2021,04,17,15,27,21.90
2021,04,17,15,28,21.90
2021,04,17,15,29,21.90
2021,04,17,15,30,21.90
2021,04,17,15,31,22.00
2021,04,17,15,32,22.00
2021,04,17,15,33,22.10
2021,04,17,15,34,22.20
2021,04,17,15,35,22.20
2021,04,17,15,36,22.20
2021,04,17,15,37,22.30
2021,04,17,15,38,22.30
2021,04,17,15,39,22.30
2021,04,17,15,40,22.30
2021,04,17,15,41,22.40
2021,04,17,15,42,22.40
2021,04,17,15,43,22.50
2021,04,17,15,44,22.50
2021,04,17,15,45,22.60
2021,04,17,15,46,22.60
2021,04,17,15,47,22.70
2021,04,17,15,48,22.70
2021,04,17,15,49,22.80
2021,04,17,15,50,22.80
2021,04,17,15,51,22.80
2021,04,17,15,52,22.80
2021,04,17,15,53,22.70
2021,04,17,15,54,22.60
2021,04,17,15,55,22.60
2021,04,17,15,56,22.60
2021,04,17,15,57,22.60
2021,04,17,15,58,22.60
2021,04,17,15,59,22.70
2021,04,17,16,00,22.70
2021,04,17,16,01,22.60
2021,04,17,16,02,22.60
2021,04,17,16,03,22.70
2021,04,17,16,04,22.70
2021,04,17,16,05,22.70
2021,04,17,16,06,22.70
2021,04,17,16,07,22.70
2021,04,17,16,08,22.70
2021,04,17,16,09,22.70
2021,04,17,16,10,22.80
2021,04,17,16,11,22.80
2021,04,17,16,12,22.80
2021,04,17,16,13,22.90
2021,04,17,16,14,22.90
2021,04,17,16,15,22.90
2021,04,17,16,16,23.00
2021,04,17,16,17,23.00
2021,04,17,16,18,23.00
2021,04,17,16,19,23.00
2021,04,17,16,20,23.10
2021,04,17,16,21,23.10
2021,04,17,16,22,23.10
2021,04,17,16,23,23.00
2021,04,17,16,24,23.00
2021,04,17,16,25,23.00
2021,04,17,16,26,22.90
2021,04,17,16,27,22.90
2021,04,17,16,28,22.90
2021,04,17,16,29,22.90
2021,04,17,16,30,22.90
2021,04,17,16,31,23.00
2021,04,17,16,32,23.00
2021,04,17,16,33,23.00
2021,04,17,16,34,23.00
2021,04,17,16,35,23.00
2021,04,17,16,36,23.00
2021,04,17,16,37,23.00
2021,04,17,16,38,23.00
2021,04,17,16,39,23.00
2021,04,17,16,40,22.90
2021,04,17,16,41,22.90
2021,04,17,16,42,23.00
2021,04,17,16,43,23.10
2021,04,17,16,44,23.10
2021,04,17,16,45,23.10
2021,04,17,16,46,23.20
2021,04,17,16,47,23.20
2021,04,17,16,48,23.30
2021,04,17,16,49,23.30
2021,04,17,16,50,23.30
2021,04,17,16,51,23.40
2021,04,17,16,52,23.40
2021,04,17,16,53,23.40
2021,04,17,16,54,23.30
2021,04,17,16,55,23.30
2021,04,17,16,56,23.20
2021,04,17,16,57,23.20
2021,04,17,16,58,23.20
2021,04,17,16,59,23.10
2021,04,17,17,00,23.10
2021,04,17,17,01,23.10
2021,04,17,17,02,23.10
2021,04,17,17,03,23.10
2021,04,17,17,04,23.20
2021,04,17,17,05,23.20
2021,04,17,17,06,23.20
2021,04,17,17,07,23.30
2021,04,17,17,08,23.30
2021,04,17,17,09,23.30
2021,04,17,17,10,23.40
2021,04,17,17,11,23.50
2021,04,17,17,12,23.60
2021,04,17,17,13,23.60
2021,04,17,17,14,23.70
2021,04,17,17,15,23.70
2021,04,17,17,16,23.80
2021,04,17,17,17,23.80
2021,04,17,17,18,23.90
2021,04,17,17,19,23.80
2021,04,17,17,20,23.80
2021,04,17,17,21,23.80
2021,04,17,17,22,23.70
2021,04,17,17,23,23.70
2021,04,17,17,24,23.70
2021,04,17,17,25,23.60
2021,04,17,17,26,23.60